463 
ASUS46 KSEW 272110
RWRWA 

WASHINGTON REGIONAL WEATHER ROUNDUP
NATIONAL WEATHER SERVICE SEATTLE WA
200 PM PDT THU AUG 27 2015

NOTE:"FAIR" INDICATES FEW OR NO CLOUDS BELOW 12,000 FEET WITH NO 
SIGNIFICANT WEATHER AND/OR OBSTRUCTIONS TO VISIBILITY.

WAZ505-507>509-272200-
SEATTLE, TACOMA, EVERETT, AND VICINITY
  
CITY           SKY/WX    TMP DP  RH WIND       PRES   REMARKS
EVERETT        FAIR      76  49  38 NW7       30.07F                  
BOEING FIELD   FAIR      81  51  35 VRB3      30.04F                  
RENTON         FAIR      80  49  33 N6        30.03F                  
SEATAC AIRPORT FAIR      79  48  33 W6        30.06F                  
JBLM-MCCHORD   FAIR      82  49  31 NW7       30.04F                  
PUYALLUP       FAIR      82  48  30 CALM      30.05F                  
BREMERTON      FAIR      82  48  30 SW7       30.07F                  
JBLM-FT LEWIS  FAIR      81  51  34 VRB5      30.03F                  
TACOMA NARROWS FAIR      79  45  29 NW6       30.04F                  
$$
 
WAZ001-503-506-510-514-515-272200-
NORTH INTERIOR
  
CITY           SKY/WX    TMP DP  RH WIND       PRES   REMARKS
BELLINGHAM     FAIR      75  50  41 S8        30.05F                  
FRIDAY HARBOR  FAIR      68  53  58 E6        30.06F                  
EASTSOUND      FAIR      68  54  60 N6        30.03F                  
PORT ANGELES   FAIR      69  52  54 N7        30.06F                  
PORT TOWNSEND  FAIR      77  50  38 VRB7      30.04F                  
NAS WHIDBEY    PTSUNNY   67  52  58 NW7       30.09F                  
ARLINGTON      FAIR      82  52  34 SE6       30.03F                  
BURLINGTON     SUNNY     79  50  36 SW6       30.04F                  
$$
 
WAZ020-022-039-040-504-511-512-272200-
SOUTHWEST INTERIOR
  
CITY           SKY/WX    TMP DP  RH WIND       PRES   REMARKS
SHELTON        FAIR      82  48  30 E8        30.01F                  
OLYMPIA        FAIR      82  44  26 S5        30.04F                  
CHEHALIS       SUNNY     84  50  30 VRB5      30.03F                  
KELSO          NOT AVBL                                               
VANCOUVER      FAIR      82  49  31 VRB3      30.02F                  
SCAPPOOSE, OR  FAIR      81  51  35 SE7       30.02F                  
PORTLAND, OR   PTSUNNY   82  50  32 N6        30.03F                  
$$
 
WAZ021-516-517-272200-
WASHINGTON COAST
  
CITY           SKY/WX    TMP DP  RH WIND       PRES   REMARKS
FORKS          FAIR      71  54  54 W12       30.07S                  
HOQUIAM        FAIR      67  57  70 W13       30.06F                  
ASTORIA, OR    FAIR      73  58  59 VRB7      30.05F                  
$$
 
WAZ019-023-024-040-518-519-272200-
CASCADE MOUNTAINS AND COLUMBIA GORGE
  
CITY           SKY/WX    TMP DP  RH WIND       PRES   REMARKS
TROUTDALE, OR  FAIR      85  43  22 VRB3      30.03F                  
THE DALLES, OR FAIR      94  39  14 NW14      29.95F HX  90           
$$

WAZ026-027-041>044-520-521-272200-
EAST SLOPES
  
CITY           SKY/WX    TMP DP  RH WIND       PRES   REMARKS
OMAK           CLOUDY    85  40  20 SE7       29.94F HAZE             
WENATCHEE      FAIR      91  39  16 SE7       29.94F                  
ELLENSBURG     FAIR      92  38  15 S6        29.99F                  
YAKIMA         FAIR      93  44  18 S12       29.97F                  
$$

WAZ028-034-035-272200-
COLUMBIA BASIN
  
CITY           SKY/WX    TMP DP  RH WIND       PRES   REMARKS
EPHRATA        FAIR      91  44  19 S17       29.96F                  
MOSES LAKE     FAIR      88  43  20 S16       29.98F                  
PASCO          FAIR      93  44  18 SW8       29.96F                  
HERMISTON, OR  FAIR      93  43  17 W10       29.97F                  
$$

WAZ036>038-272200-
NORTHEAST WASHINGTON
  
CITY           SKY/WX    TMP DP  RH WIND       PRES   REMARKS
SPOKANE GEIGER PTSUNNY   86  38  18 SW18      30.05S                  
SPOKANE FELTS  FAIR      88  38  17 S10       30.03F                  
FAIRCHILD AFB  FAIR      86  38  18 S12G24    30.05F                  
COEURDALENE,ID FAIR      84  43  23 S7        30.03F                  
DEER PARK      FAIR      86  41  20 S12       30.04F                  
$$

WAZ029>033-272200-
SOUTHEAST WASHINGTON
  
CITY           SKY/WX    TMP DP  RH WIND       PRES   REMARKS
PULLMAN        FAIR      85  38  18 SW8       30.09F                  
LEWISTON, ID   FAIR      90  40  17 VRB3      30.00F HAZE             
WALLA WALLA    FAIR      91  39  16 W8        30.01F                  
PENDLETON, OR  FAIR      89  37  16 VRB6      30.01F                  
$$